Theta_e
321 321 320 321 321 322 323 322 321 320 320 320 320 321 319 317 317 321 320 316 315 314 314 313 314 316 315 314 311 310 309 308
321 320 320 320 320 320 322 322 321 321 320 320 319 321 319 318 318 321 321 317 316 315 315 314 314 314 316 316 313 312 310 308
321 320 319 320 320 320 320 321 321 320 321 320 320 320 319 319 320 321 320 317 317 316 316 316 315 314 314 316 316 314 314 311
322 320 319 319 319 320 319 320 321 321 320 320 320 319 318 317 319 320 318 317 316 316 317 319 319 318 317 317 318 317 316 313
323 321 319 319 319 319 319 319 319 320 319 320 319 319 319 317 316 318 321 321 319 320 321 321 321 321 321 322 321 320 318 317
324 323 320 319 319 319 318 319 320 319 319 319 319 320 319 319 317 315 316 319 319 320 318 319 319 319 321 321 321 321 320 318
324 322 321 319 317 316 317 318 319 319 320 319 319 318 318 318 317 316 317 315 316 315 315 315 315 315 318 321 322 321 321 319
324 323 321 319 316 314 316 317 318 319 318 318 318 318 318 317 317 317 316 315 314 313 313 314 314 314 314 317 320 322 322 322
324 324 321 318 316 315 316 316 318 318 318 317 317 317 317 317 317 317 317 316 316 315 314 314 314 314 315 316 318 319 320 320
324 324 322 320 318 317 316 317 317 317 317 317 317 316 316 316 316 315 315 316 316 316 316 315 315 315 316 317 317 319 320 321
323 324 323 321 320 318 317 317 317 318 317 317 317 317 316 316 315 315 315 316 316 316 315 315 316 316 316 317 319 320 321 321
323 324 323 322 321 319 317 317 317 317 317 317 317 316 316 315 315 316 317 316 315 314 314 316 316 317 317 318 319 320 321 320
321 323 323 322 321 320 318 317 317 316 316 316 316 316 315 315 315 315 315 314 314 315 316 316 317 318 317 317 319 321 321 320
319 321 323 323 322 321 319 318 317 317 316 316 315 315 315 315 315 315 315 315 316 316 317 317 317 317 318 318 320 320 319 320
315 319 322 323 323 323 321 319 317 317 316 315 315 315 316 316 316 316 316 316 316 317 317 318 318 318 319 319 318 319 319 317
314 316 319 321 322 322 322 322 319 317 316 316 316 316 315 316 317 317 317 317 317 318 318 319 320 320 319 320 319 318 317 316
316 314 315 318 319 321 322 322 321 319 318 317 317 316 317 316 316 317 317 318 318 319 319 319 320 319 320 321 320 317 316 313
317 316 314 316 316 318 321 322 322 321 320 320 319 318 318 318 319 318 318 319 320 321 321 321 321 320 321 321 317 315 313 308
317 316 316 315 316 317 318 320 321 321 322 322 321 321 320 321 321 321 321 321 321 321 321 321 320 319 318 314 311 310 307 305
Wind_Speed
10 10 10 10 14 17 23 25 29 32 34 34 28 29 37 41 41 26 31 30 30 30 28 26 25 23 21 20 18 17 16 15
12 10 11 11 12 15 22 29 24 34 29 30 31 30 33 37 38 32 33 31 31 30 26 25 24 25 23 20 17 17 17 17
14 14 12 13 13 15 21 25 30 31 30 25 27 28 32 33 35 33 31 31 31 29 26 25 26 25 22 21 22 16 11 18
16 18 18 16 16 18 18 25 31 32 30 27 25 29 26 27 34 30 30 30 31 29 26 25 27 24 25 26 24 22 16 18
16 19 21 22 20 17 18 22 29 33 33 28 28 30 27 29 33 36 31 28 30 29 25 26 24 22 21 25 23 24 20 17
20 20 26 24 24 23 21 23 25 28 35 36 30 27 27 25 30 36 32 28 31 30 26 23 23 20 26 27 26 26 28 19
19 23 24 23 24 25 23 25 25 27 30 35 32 27 28 26 30 35 33 35 32 32 30 28 26 24 23 24 25 25 28 28
18 19 21 26 27 28 28 30 29 29 31 33 35 33 29 30 29 31 30 27 32 34 32 31 30 30 27 25 24 26 28 28
19 22 26 29 30 29 28 32 32 32 32 33 34 35 33 32 34 32 31 29 27 33 34 33 33 31 29 30 29 27 26 26
17 18 26 29 31 35 35 34 34 34 36 34 34 34 35 34 35 34 37 39 38 37 37 37 38 35 33 33 31 29 26 27
13 16 24 29 31 30 32 35 37 36 35 35 36 36 35 35 32 37 40 40 41 41 40 39 38 38 36 34 30 26 24 26
12 14 21 25 26 29 32 33 32 33 36 36 35 37 37 37 40 47 52 48 48 47 45 41 38 38 36 34 31 30 31 31
9 12 18 23 26 28 32 33 34 36 35 34 37 36 37 40 42 40 35 36 42 44 33 34 34 32 34 36 33 31 34 30
6 10 14 19 25 28 32 33 38 34 33 34 34 35 38 42 42 41 38 41 38 33 33 34 34 36 34 34 33 34 30 30
6 8 13 17 23 27 29 30 31 32 33 35 35 39 44 42 39 37 37 39 36 34 33 31 33 32 31 29 31 31 31 29
9 9 11 13 19 24 27 27 29 33 33 34 41 38 35 35 34 34 34 35 35 33 30 28 29 28 31 32 31 33 32 30
12 9 9 10 17 23 24 25 29 32 32 36 31 31 32 33 34 34 33 33 31 29 33 33 30 33 37 35 36 33 32 26
13 12 10 10 19 25 25 28 25 31 32 30 29 29 30 30 29 29 31 30 27 29 29 29 33 35 35 36 33 29 25 24
12 11 11 18 21 21 26 18 24 27 27 27 27 28 28 24 24 26 25 24 26 28 30 31 33 32 30 24 26 22 20 21
Wind_Direction
216 201 191 188 191 188 178 159 172 173 176 187 183 176 185 189 200 213 200 194 192 191 187 184 182 185 187 182 178 175 178 181
197 207 195 186 182 179 175 178 167 165 167 170 181 179 175 189 201 214 202 199 198 199 194 193 194 197 195 192 187 187 187 192
193 197 202 195 189 185 184 182 185 171 176 173 182 182 187 197 202 206 199 202 203 204 201 201 205 204 207 205 202 193 196 196
198 192 201 197 198 189 184 186 189 181 180 176 177 181 180 186 191 189 197 201 207 205 205 206 215 210 216 218 213 212 202 206
194 196 197 200 199 197 190 188 185 191 188 188 179 179 179 189 190 194 193 199 203 204 214 214 214 217 227 228 229 226 220 213
194 197 195 199 197 195 192 192 191 187 190 196 194 195 197 188 194 206 207 218 214 216 211 208 218 224 237 237 235 231 234 225
199 199 190 193 200 197 196 194 194 192 191 194 198 196 195 195 202 204 206 217 219 221 224 226 227 230 238 241 242 241 239 238
192 189 192 188 193 197 195 199 199 196 194 197 201 202 201 205 207 210 211 221 227 231 233 236 237 242 246 252 252 252 247 245
198 193 193 194 191 194 195 198 201 198 200 202 202 205 209 212 216 218 223 228 231 240 244 248 251 256 258 253 254 257 253 255
208 197 195 196 195 195 196 198 203 203 202 202 204 206 208 214 219 225 227 236 241 248 254 258 261 262 255 248 251 256 259 259
204 199 197 200 202 200 200 202 203 203 205 206 207 209 211 213 215 221 227 234 240 246 250 251 252 253 253 251 251 254 256 259
206 203 200 204 199 198 202 205 205 207 206 207 206 208 209 212 217 225 228 229 231 234 238 241 241 242 243 244 251 261 258 251
216 198 192 197 205 200 202 203 205 206 207 207 208 208 209 213 219 223 224 226 232 234 232 229 232 237 240 249 253 248 252 263
210 192 196 201 206 204 204 203 206 205 203 204 206 206 209 215 217 218 219 226 230 228 230 229 236 237 246 250 246 251 250 240
248 213 208 206 209 209 207 207 206 202 205 204 207 211 215 217 219 218 218 221 224 224 229 231 240 245 239 238 247 239 232 235
242 234 221 208 210 210 213 210 201 197 202 206 212 215 218 220 221 221 222 223 226 225 227 234 239 241 243 253 248 241 236 238
270 236 235 218 210 212 215 207 202 195 200 212 215 211 213 216 219 221 223 226 229 227 226 231 235 243 253 255 248 241 235 231
267 255 234 226 218 216 213 207 196 196 203 212 212 210 211 214 218 223 225 227 228 229 231 228 231 237 252 253 237 229 223 215
253 259 260 242 228 216 222 210 199 199 206 206 208 207 212 212 212 219 223 223 224 224 229 229 228 233 235 225 215 213 200 189